Regional Weather Roundup
Issued by NWS

Home | Current Version | Previous Version | Graphics & Text | Print | Product List | Glossary Off
Versions: 1 2 3 4 5 6 7 8 9 10 11 12 13 14 15 16 17 18 19 20 21 22 23 24 25 26 27 28 29 30 31 32 33 34 35 36 37 38 39 40 41 42 43 44 45 46 47 48 49 50

000
ASUS43 KLSX 291310
RWRMO

WEATHER SUMMARY FOR MISSOURI
NATIONAL WEATHER SERVICE SPRINGFIELD MO
800 AM CDT FRI APR 29 2016

NOTE: "FAIR" INDICATES FEW OR NO CLOUDS BELOW 12,000 FEET WITH NO
       SIGNIFICANT WEATHER AND/OR OBSTRUCTIONS TO VISIBILITY.
       CURRENT SKY AND/OR WEATHER CONDITIONS ARE NOT AVAILABLE FOR
       CHILLICOTHE AND FARMINGTON.

MOZ001>031-035>038-043-044-053-054-291400-
...NORTHERN AND WESTERN MISSOURI...

CITY           SKY/WX    TMP DP  RH WIND       PRES   REMARKS
KANSAS CTY INT CLOUDY    48  43  82 NE13      30.05R
KANSAS C DTWN  CLOUDY    50  43  77 NE7       30.06R
LEE`S SUMMIT   CLOUDY    49  44  83 NE9       30.05R
ST JOSEPH      CLOUDY    47  42  83 N7        30.08R
CHILLICOTHE      N/A     50  45  83 NE6       30.08S
KIRKSVILLE     CLOUDY    49  46  90 N7        30.07R

$$
MOZ066>068-077>081-088>096-101>105-291400-
...SOUTHWEST MISSOURI...

CITY           SKY/WX    TMP DP  RH WIND       PRES   REMARKS
SPRINGFIELD    CLOUDY    53  46  77 E12       29.97F
JOPLIN         CLOUDY    53  47  79 NE12G22   29.97R
BRANSON        LGT RAIN  54  50  87 CALM      30.00R

$$
MOZ032>034-039>042-045>050-055>058-069>072-291400-
...CENTRAL MISSOURI...

CITY           SKY/WX    TMP DP  RH WIND       PRES   REMARKS
COLUMBIA       CLOUDY    51  48  89 E8        30.05R
JEFFERSON CITY PTSUNNY   51  48  89 SE5       30.06R
ROLLA          CLOUDY    51  46  83 SE6       30.05R
SEDALIA        PTSUNNY   51  47  86 E8        30.06R
WHITEMAN AFB   CLOUDY    49  49  99 NE7       30.05R
WARRENSBURG    PTSUNNY   48  45  87 N7        30.05R
OSAGE BEACH    CLOUDY    50  41  71 E5        30.05F

$$
MOZ051-052-059>065-291400-
...EAST CENTRAL MISSOURI...

CITY           SKY/WX    TMP DP  RH WIND       PRES   REMARKS
ST LOUIS INTL  CLOUDY    56  48  74 NE8       30.06R
SPIRIT OF STL  CLOUDY    55  49  80 NE6       30.05R
ST CHARLES     CLOUDY    54  49  83 E6        30.06R

$$
MOZ072>076-082>087-097>100-106>115-291400-
...SOUTH CENTRAL AND SOUTHEAST MISSOURI...

CITY           SKY/WX    TMP DP  RH WIND       PRES   REMARKS
CAPE GIRARDEAU PTSUNNY   59  50  72 NE9       30.03R
FARMINGTON     PTSUNNY   54  50  86 NE3       30.06R
POPLAR BLUFF   CLOUDY    58  50  75 NE9       30.01R
WEST PLAINS    CLOUDY    53  47  79 NE10      30.02R

$$



USA.gov is the U.S. government's official web portal to all federal, state and local government web resources and services.